Zurück zum Katalog

CZ-6A DEB

AktivSSO
NORAD 56642·DEBRIS·🇨🇳 China

Gestartet Nov 11, 2022 von Taiyuan Satellite Launch Center

Loading…

Nächste Überflüge (nächste 24 Stunden)

TLE

AktuellSource: Space-Track

Epoche: Sep 14, 2026, 03:49 UTC

1 56642U 22151AFS 26257.15914538  .00000027  00000-0  50127-4 0  9990
2 56642  98.9253 220.8253 0126334 202.5367 157.0216 13.93375030172317

Verfolge CZ-6A DEB in Echtzeit mit AllMySat

Download on the App Store